Simultaneous Nadir Overpasses (SNOs) Predictions

Prediction of SNOs between LANDSAT-8 and METOP-B Satellite Orbit:

Table of predicted SNOs for the next 14.0 days since TLE Epoch: 7/31/2015
Index Date (LANDSAT-8) Time (LANDSAT-8) Lat,Lon (LANDSAT-8) SZA (LANDSAT-8 ) Date (METOP-B) Time (METOP-B) Lat,Lon (METOP-B) SZA (METOP-B ) Distance(km) Time Diff (sec)
1 08/02/2015 23:41:19 -81.13, 44.84 114.51 08/02/2015 23:41:14 -81.13, 44.71 114.53 2.18 5
2 08/03/2015 00:30:44 81.16,-147.05 65.57 08/03/2015 00:31:52 81.16,-147.03 65.60 0.44 68
3 08/05/2015 18:26:08 81.12, -56.55 66.20 08/05/2015 18:24:55 81.12, -56.47 66.18 1.46 73
4 08/05/2015 19:15:34 -81.14, 111.40 113.74 08/05/2015 19:15:35 -81.14, 111.32 113.75 1.49 1
5 08/05/2015 20:04:45 81.45, -75.17 67.10 08/05/2015 20:05:59 81.30, -75.05 67.04 17.29 74
6 08/08/2015 14:00:23 81.12, 9.92 67.00 08/08/2015 13:59:16 81.12, 10.07 66.98 2.56 67
7 08/08/2015 14:49:49 -81.14, 177.90 112.95 08/08/2015 14:49:56 -81.14, 177.90 112.95 0.34 7
8 08/11/2015 09:34:37 81.12, 76.33 67.81 08/11/2015 09:33:37 81.11, 76.20 67.77 2.36 60
9 08/11/2015 10:24:03 -81.14,-115.66 112.13 08/11/2015 10:24:16 -81.15,-115.56 112.11 1.72 13
10 08/14/2015 05:08:52 81.11, 142.68 68.66 08/14/2015 05:07:58 81.12, 142.67 68.64 0.31 54




NCC Satellite Simultaneous Nadir Overpasses (SNOs) Prediction Service
